Home   Weather   Gronau (Westfalen)   Past weeks

Flag for Germany Past Weather in Gronau (Westfalen), North Rhine-Westphalia, Germany — Yesterday and Last 2 Weeks

Now
53 °F

Fog.


Feels Like: 53 °F
Forecast: 44 / 68 °F
Wind: 1 mph from Southwest

Location: Twenthe

Current Time: Sep 26, 2016 at 5:46:39 AM

Latest Report: Sep 26, 2016 at 5:00 AM


Visibility: 6 mi

Pressure: 30.19 "Hg

Humidity: 99%

Dew Point: 52 °F

Location of Gronau (Westfalen)Location

Past Weather in Gronau (Westfalen) — Graph

°F

Gronau (Westfalen) Temperature Yesterday

Maximum temperature yesterday: 78 °F (at 3:00 PM)
Minimum temperature yesterday: 52 °F (at 6:00 AM)
Average temperature yesterday: 63 °F

High & Low Weather Summary for the Past Weeks

 TemperatureHumidityPressure
High89 °F (Sep 13, 5:00 PM)100% (Sep 13, 1:00 AM)30.30 "Hg (Sep 13, 1:00 AM)
Low42 °F (Sep 20, 6:00 AM)38% (Sep 25, 4:00 PM)29.82 "Hg (Sep 15, 5:00 PM)
Average63 °F75%30.05 "Hg
* Reported Sep 11 4:00 AM — Sep 26 4:00 AM, Gronau (Westfalen), Weather by CustomWeather, © 2016

Note: Actual official high and low records may vary slightly from our data, if they occured in-between our weather recording intervals... More about our weather records

Advertising

Gronau (Westfalen) Weather History for the Previous 24 Hours

Scroll right to see more
 ConditionsComfort  
Time TempWeatherWind HumidityBarometerVisibility
4:00 AM
Mon, Sep 26
54 °FPassing clouds.1 mph96%30.19 "Hg9 mi
3:00 AM56 °FOvercast.2 mph95%30.18 "Hg10 mi
2:00 AM57 °FOvercast.2 mph95%30.17 "Hg12 mi
1:00 AM56 °FOvercast.2 mph91%30.16 "Hg15 mi
12:00 AM55 °FOvercast.2 mph91%30.15 "Hg19 mi
11:00 PM
Sun, Sep 25
54 °FPassing clouds.2 mph88%30.14 "Hg25 mi
10:00 PM58 °FPassing clouds.2 mph79%30.12 "Hg28 mi
9:00 PM61 °FPassing clouds.5 mph75%30.11 "Hg25 mi
8:00 PM66 °FOvercast.8 mph72%30.08 "Hg22 mi
7:00 PM70 °FPartly sunny.3 mph59%30.01 "Hg28 mi
6:00 PM76 °FPartly sunny.5 mph45%30.00 "Hg22 mi
5:00 PM77 °FScattered clouds.5 mph42%29.99 "Hg22 mi
4:00 PM78 °FOvercast.7 mph38%29.98 "Hg28 mi
3:00 PM78 °FPassing clouds.5 mph40%29.98 "Hg19 mi
2:00 PM77 °FScattered clouds.5 mph45%29.98 "Hg19 mi
1:00 PM74 °FSunny.5 mph49%30.00 "Hg17 mi
12:00 PM71 °FPassing clouds.5 mph54%30.01 "Hg18 mi
11:00 AM67 °FPassing clouds.6 mph59%30.02 "Hg16 mi
10:00 AM63 °FPassing clouds.5 mph67%30.03 "Hg14 mi
9:00 AM56 °FSunny.3 mph75%30.04 "Hg11 mi
8:00 AM53 °FSunny.3 mph81%30.04 "Hg9 mi
7:00 AM52 °FClear.3 mph82%30.05 "Hg9 mi
6:00 AM52 °FClear.2 mph83%30.06 "Hg9 mi
5:00 AM54 °FOvercast.3 mph80%30.07 "Hg10 mi
Weather by CustomWeather, © 2016

See weather overviewHow to use our weather pages